Tracking 19245 objects as of 17-Aug-2018
HD Live streaming from Space Station
objects crossing your sky now

FENGYUN 1C DEB

Track FENGYUN 1C DEB now!
10-day predictions


NORAD ID: 32325
Int'l Code: 1999-025CXS
Perigee: 718.6 km
Apogee: 817.7 km
Inclination: 99.0 °
Period: 100.1 minutes
Semi major axis: 7139 km
RCS: 0.0111 m2 (small)
Launch date: May 10, 1999
Source: People's Republic of China (PRC)
Launch site: Taiyaun Space Center, China (TSC)

Note: This is SATELLITE DEBRIS
aabbcc
Your satellite tracking list
Your tracking list is empty




NASA's NSSDC Master Catalog

Two Line Element Set (TLE):
1 32325U 99025CXS 18219.67086893 +.00000815 +00000-0 +27076-3 0  9997
2 32325 098.9825 022.6577 0069415 057.3614 303.4245 14.39243113579630
Source of the keplerian elements: AFSPC